STARLINK-6160, 56382

Orbit data source: Space-Track

STARLINK-6160, 56382 is a payload satellite owned by SpaceX/Seattle (US) in LEO that was launched on Thu, 04 May 2023 UTC via an FALCON 9 launch vehicle from the Air Force Eastern Test Range (AFETR). Payload-class satellites include a variety of spacecraft equipped with specific instruments for various scientific and technological missions. These include communications satellites like Starlink; space stations such as the ISS; scientific satellites like the Hubble; Earth observation satellites from companies like Planet Labs, Umbra, and HawkEye 360; GPS; miniature CubeSats for education and research; and military/defense satellites.

Loading next visibility...
Identifier
56382, 2023-061J
Orbit
LEO
Country
Flag of USUS
Related business
Manufacturer
SpaceX/Seattle
Mission
Operational Commercial Communications
Bus & Motor
STARLINK, Unknown motor
Mass
305 kg wet, ~290 kg dry
Launch date (UTC)
2023-05-04 (3 years ago)
Launch vehicle
FALCON 9
Launch site
Air Force Eastern Test Range (AFETR)
Object type
Payload
Rocket body
Debris
Shape & HBR
Box + 1 Pan, 10.1 m
Radar Cross Section
11.087 m², Large (>1 m²)

Expand to show TLE details & history
Last TLE update: 2 days ago

TLE from 2 days ago
0 STARLINK-6160
1 56382U 23061J   26171.45575691 -.00000102  00000-0  58229-5 0  9990
2 56382  43.0039 337.7648 0001472 262.4715  97.5969 15.27578580172467
Epoch: 2026-06-20T10:56Z
TLE epoch observation values (Epoch: 2026-06-20T10:56:17.397Z)
Latitude
-0.00003°
Longitude
-94.97785°
Altitude
482.963 km
Speed
7.626 km/s
True Right ascension
22h 31m 03s
True Declination
0° 00' 00"
Sunlit
Object was in daylight at epoch
Visualization orbit readout
Latitude
Unknown
Longitude
Unknown
Altitude
Unknown
Speed
Unknown
Apparent Right ascension
Unknown
Apparent Declination
Unknown
Sunlit
N/A
Visualization observer readout
Local Sidereal Time
00:38:30
Azimuth
Unknown
Elevation
Unknown
Doppler factor
Unknown
Orbital elements
Apogee altitude
486.008 km
Perigee altitude
483.988 km
Semi-major axis
6,863.135 km
Eccentricity
0.00015
Inclination
43.0039°
RAAN
337.7648°
Arg. of periapsis
262.4715°
True anomaly
97.61362°
Mean anomaly
97.5969°
Eccentric anomaly
97.60526°
Mean motion
3.81733 °/min
Orbital period
94.31 mins
BSTAR
0.0000058229
Loading maneuver chart data...
Computing Atmospheric mass density...
Loading historical data...
Loading historical data...
Loading historical data...
Loading historical data...
Loading historical data...
Loading historical data...
Loading historical data...

Documentation

Showing up to 5 results
|